Terug naar catalogus

BREEZE-M R/B

ActiefHEO
NORAD 50003·ROCKET BODY·🇷🇺 Russia

Gelanceerd Dec 13, 2021 vanaf Baikonur Cosmodrome

Loading…

Volgende Passages (komende 24 uur)

TLE

VersSource: Space-Track

Epoch: Sep 13, 2026, 18:52 UTC

1 50003U 21123C   26256.78643094 -.00000203  00000-0  00000-0 0  9995
2 50003   6.0463  84.3392 4396318  59.6048 337.0631  1.07952816 18803

Volg BREEZE-M R/B in realtime met AllMySat

Download on the App Store